Location: Long Geng
(2.6167°N, 114.1333°E)
Time: 00:17:39
(UTC+00:00)

BLOCK DM-SL R/B - Pass Details

Date: 14 May 2021
Orbit: 300 x 32506 km, 2.9° (Epoch: 19 June)

Event Time Altitude Azimuth Distance (km) Brightness Sun altitude
Rises 12:07:06 0° 270° (W) 15,593 10.3 -24.3°
Reaches altitude 10° 12:21:22 10° 269° (W) 17,733 10.2 -27.6°
Drops below altitude 10° 17:05:55 10° 267° (W) 35,935 10.7 -65.8°
Enters shadow 19:51:32 - 266° (W) 17,035 8.8 -33.7°
Exits shadow 20:31:34 31° 261° (W) 4,156 5.6 -24.5°
Maximum altitude 20:38:53 75° 182° (S) 1,341 3.5 -22.9°
Sets 20:44:17 0° 93° (E) 2,636 6.4 -21.6°
